Weather History for KLHQ - January, 2013

Change the Weather History Date:

Tuesday, January 1, 2013

  Actual Average Record
Temperature  
Mean Temperature 24 °F -  
Max Temperature 33 °F 38 °F 61 °F (1966)
Min Temperature 16 °F 20 °F -11 °F (1968)
Degree Days  
Heating Degree Days 40    
Moisture  
Dew Point 26 °F    
Average Humidity 85    
Maximum Humidity 93    
Minimum Humidity 64    
Precipitation  
Precipitation 0.04 in - - ()
Sea Level Pressure  
Sea Level Pressure 30.06 in    
Wind  
Wind Speed 6 mph (West)    
Max Wind Speed 9 mph    
Max Gust Speed -    
Visibility 4 miles    
Events Snow    
Averages and records for this station are not official NWS values.
T = Trace of Precipitation, MM = Missing Value Source: NWS Daily Summary

Daily Weather History Graph

Daily Weather History Graph

Search for Another Location

Airport or City:

Trip Planner

Search our weather history database for the weather conditions in past years. The results will help you decide how hot, cold, wet, or windy it might be!

Date:

Astronomy

Jan. 01, 2013 Rise Set
Actual Time 7:51 AM EST 5:17 PM EST
Civil Twilight 7:21 AM EST 5:47 PM EST
Nautical Twilight 6:47 AM EST 6:21 PM EST
Astronomical Twilight 6:14 AM EST 6:53 PM EST
Moon 9:46 PM EST (1/1) 10:04 AM EST (1/1)
Length of Visible Light 10h 25m
Length of Day
9h 25m
Waning Gibbous, 83% of the Moon is Illuminated
Jan 1
Waning Gibbous
Jan 4
Last Quarter
Jan 11
New
Jan 18
First Quarter
Jan 26
Full

Hourly Weather History & Observations

Time (EST) Temp. Windchill Dew Point Humidity Pressure Visibility Wind Dir Wind Speed Gust Speed Precip Events Conditions
12:35 AM 33.8 °F 27.0 °F 28.4 °F 81% 30.05 in 2.5 mi WSW 8.1 mph - 0.00 in Snow Light Snow
12:53 AM 33.1 °F 25.5 °F 28.9 °F 85% 30.07 in 4.0 mi WSW 9.2 mph - 0.00 in Snow Light Snow
1:10 AM 33.8 °F 27.0 °F 28.4 °F 81% 30.05 in 2.0 mi WSW 8.1 mph - 0.00 in Snow Light Snow
1:14 AM 32.0 °F 24.2 °F 28.4 °F 87% 30.04 in 1.8 mi WSW 9.2 mph - 0.01 in Snow Light Snow
1:35 AM 32.0 °F 26.4 °F 28.4 °F 87% 30.03 in 1.5 mi WSW 5.8 mph - 0.01 in Snow Light Snow
1:45 AM 32.0 °F 26.4 °F 28.4 °F 87% 30.03 in 2.5 mi SW 5.8 mph - 0.01 in Snow Light Snow
1:53 AM 32.0 °F 26.4 °F 28.9 °F 88% 30.06 in 3.0 mi WSW 5.8 mph - 0.01 in Snow Light Snow
2:01 AM 32.0 °F 25.6 °F 28.4 °F 87% 30.04 in 3.0 mi SW 6.9 mph - 0.00 in Snow Light Snow
2:15 AM 32.0 °F 27.5 °F 28.4 °F 87% 30.03 in 2.5 mi WSW 4.6 mph - 0.00 in Snow Light Snow
2:26 AM 32.0 °F 26.4 °F 28.4 °F 87% 30.04 in 3.0 mi WSW 5.8 mph - 0.00 in Snow Light Snow
2:53 AM 32.0 °F 25.6 °F 28.9 °F 88% 30.06 in 2.5 mi WSW 6.9 mph - 0.00 in Snow Light Snow
3:00 AM 32.0 °F 25.6 °F 28.4 °F 87% 30.04 in 1.8 mi WSW 6.9 mph - 0.00 in Snow Light Snow
3:46 AM 32.0 °F 27.5 °F 30.2 °F 93% 30.03 in 2.0 mi WSW 4.6 mph - 0.00 in Snow Light Snow
3:53 AM 32.0 °F 26.4 °F 30.0 °F 92% 30.06 in 2.0 mi WSW 5.8 mph - 0.00 in Snow Light Snow
4:13 AM 32.0 °F 27.5 °F 30.2 °F 93% 30.02 in 2.5 mi WSW 4.6 mph - 0.00 in Snow Light Snow
4:36 AM 32.0 °F 27.5 °F 30.2 °F 93% 30.02 in 3.0 mi West 4.6 mph - 0.00 in   Overcast
4:45 AM 32.0 °F 27.5 °F 30.2 °F 93% 30.02 in 4.0 mi WSW 4.6 mph - 0.00 in Snow Light Snow
4:53 AM 32.0 °F 28.7 °F 30.0 °F 92% 30.04 in 2.0 mi West 3.5 mph - 0.01 in Snow Light Snow
5:00 AM 32.0 °F 27.5 °F 30.2 °F 93% 30.02 in 1.5 mi SW 4.6 mph - 0.00 in Snow Light Snow
5:08 AM 32.0 °F 27.5 °F 30.2 °F 93% 30.02 in 1.5 mi SW 4.6 mph - 0.00 in Snow Light Snow
5:16 AM 32.0 °F 27.5 °F 30.2 °F 93% 30.02 in 1.8 mi WSW 4.6 mph - 0.00 in Snow Light Snow
5:23 AM 32.0 °F 27.5 °F 30.2 °F 93% 30.03 in 2.0 mi West 4.6 mph - 0.00 in Snow Light Snow
5:41 AM 32.0 °F 26.4 °F 30.2 °F 93% 30.03 in 1.5 mi West 5.8 mph - 0.00 in Snow Light Snow
5:53 AM 32.0 °F 28.7 °F 30.0 °F 92% 30.05 in 1.0 mi West 3.5 mph - 0.01 in Snow Light Snow
6:05 AM 32.0 °F 28.7 °F 30.2 °F 93% 30.03 in 1.5 mi WSW 3.5 mph - 0.00 in Snow Light Snow
6:29 AM 32.0 °F 26.4 °F 30.2 °F 93% 30.04 in 2.0 mi West 5.8 mph - 0.00 in Snow Light Snow
6:35 AM 32.0 °F 26.4 °F 30.2 °F 93% 30.04 in 2.5 mi West 5.8 mph - 0.00 in Snow Light Snow
6:45 AM 32.0 °F 26.4 °F 30.2 °F 93% 30.05 in 1.8 mi West 5.8 mph - 0.00 in Snow Light Snow
6:53 AM 32.0 °F 27.5 °F 30.0 °F 92% 30.06 in 1.5 mi West 4.6 mph - 0.01 in Snow Light Snow
7:06 AM 32.0 °F 27.5 °F 30.2 °F 93% 30.04 in 2.0 mi West 4.6 mph - 0.00 in Snow Light Snow
7:22 AM 32.0 °F 27.5 °F 30.2 °F 93% 30.04 in 2.5 mi West 4.6 mph - 0.00 in Snow Light Snow
7:25 AM 32.0 °F 27.5 °F 30.2 °F 93% 30.04 in 3.0 mi West 4.6 mph - 0.00 in Snow Light Snow
8:00 AM 32.0 °F 27.5 °F 30.2 °F 93% 30.04 in 5.0 mi West 4.6 mph - N/A   Overcast
8:17 AM 32.0 °F 26.4 °F 30.2 °F 93% 30.05 in 4.0 mi West 5.8 mph - N/A   Overcast
8:41 AM 32.0 °F 26.4 °F 30.2 °F 93% 30.06 in 4.0 mi West 5.8 mph - N/A   Overcast
8:53 AM 32.0 °F 27.5 °F 30.0 °F 92% 30.08 in 3.0 mi WNW 4.6 mph - N/A   Overcast
9:20 AM 32.0 °F 27.5 °F 30.2 °F 93% 30.06 in 4.0 mi WNW 4.6 mph - N/A   Overcast
9:34 AM 32.0 °F - 30.2 °F 93% 30.06 in 4.0 mi Calm Calm - N/A   Overcast
9:53 AM 32.0 °F 27.5 °F 30.0 °F 92% 30.09 in 4.0 mi NNW 4.6 mph - N/A   Overcast
10:40 AM 32.0 °F 26.4 °F 28.4 °F 87% 30.07 in 4.0 mi NNW 5.8 mph - N/A   Overcast
10:53 AM 32.0 °F 25.6 °F 28.0 °F 85% 30.11 in 4.0 mi NNW 6.9 mph - N/A   Overcast
11:53 AM 30.0 °F 21.7 °F 24.1 °F 79% 30.09 in 4.0 mi North 9.2 mph - N/A   Haze
12:27 PM 30.2 °F 23.4 °F 24.8 °F 80% 30.05 in 6.0 mi North 6.9 mph - N/A   Haze
12:53 PM 30.9 °F 23.5 °F 23.0 °F 72% 30.07 in 6.0 mi North 8.1 mph - N/A   Haze
1:48 PM 30.2 °F 22.6 °F 21.2 °F 69% 30.03 in 6.0 mi North 8.1 mph - N/A   Haze
1:53 PM 30.0 °F 23.2 °F 21.9 °F 72% 30.05 in 6.0 mi North 6.9 mph - N/A   Haze
2:53 PM 28.9 °F 21.9 °F 19.9 °F 69% 30.06 in 7.0 mi NNW 6.9 mph - N/A   Clear
3:53 PM 28.9 °F 21.1 °F 18.0 °F 64% 30.09 in 9.0 mi NNW 8.1 mph - N/A   Mostly Cloudy
4:22 PM 28.4 °F 21.2 °F 17.6 °F 64% 30.08 in 10.0 mi NNW 6.9 mph - N/A   Scattered Clouds
4:53 PM 27.0 °F 19.5 °F 18.0 °F 69% 30.10 in 8.0 mi North 6.9 mph - N/A   Clear
5:53 PM 24.1 °F 19.7 °F 16.0 °F 71% 30.12 in 10.0 mi North 3.5 mph - N/A   Clear
6:53 PM 23.0 °F 18.4 °F 14.0 °F 68% 30.13 in 10.0 mi North 3.5 mph - N/A   Clear
7:53 PM 19.9 °F 13.4 °F 10.9 °F 68% 30.12 in 10.0 mi NNE 4.6 mph - N/A   Clear
8:53 PM 18.0 °F - 10.9 °F 74% 30.13 in 10.0 mi Calm Calm - N/A   Clear
9:53 PM 18.0 °F - 12.0 °F 78% 30.15 in 10.0 mi Calm Calm - N/A   Clear
10:53 PM 16.0 °F 10.4 °F 10.0 °F 77% 30.17 in 10.0 mi North 3.5 mph - N/A   Mostly Cloudy
11:53 PM 18.0 °F - 12.0 °F 78% 30.17 in 10.0 mi Calm Calm - N/A   Mostly Cloudy